SAS61E ESSA-EGCC

Flight info

Callsign SAS61E
Flight time N/A
Altitude 38000
Route ARS N623 BEDLA P609 KSD DCT MOGLU DCT NIVUN DCT LAMRO DCT CUTEL DCT DIGBI DCT TILNI
Aircraft A20N/M-SDE2E3FGHIRWXY/LB1

Departure

Time 2026-05-08 08:37
Airport Stockholm-Arlanda Airport (ESSA)

Arrival

Time N/A
Airport Manchester Airport (EGCC)
Time Latitude Longitude Altitude Speed Heading
2026-05-08 08:05 59.65437 17.93518 112 ft 0 kts 75°
2026-05-08 08:24 59.65436 17.93511 112 ft 2 kts 76°
2026-05-08 08:24 59.65432 17.93483 112 ft 2 kts 75°
2026-05-08 08:25 59.65429 17.93454 112 ft 2 kts 75°
2026-05-08 08:25 59.65425 17.93425 111 ft 2 kts 75°
2026-05-08 08:25 59.65421 17.93399 111 ft 0 kts 75°
2026-05-08 08:25 59.65418 17.93380 111 ft 2 kts 45°
2026-05-08 08:26 59.65404 17.93367 111 ft 2 kts 360°
2026-05-08 08:26 59.65398 17.93368 111 ft 1 kts 338°
2026-05-08 08:26 59.65393 17.93371 111 ft 0 kts 345°
2026-05-08 08:29 59.65396 17.93370 111 ft 1 kts 345°
2026-05-08 08:29 59.65414 17.93361 111 ft 4 kts 346°
2026-05-08 08:30 59.65451 17.93342 111 ft 6 kts 348°
2026-05-08 08:30 59.65504 17.93343 111 ft 8 kts 345°
2026-05-08 08:30 59.65505 17.93072 110 ft 12 kts 255°
2026-05-08 08:31 59.65474 17.92895 109 ft 14 kts 249°
2026-05-08 08:31 59.65442 17.92741 108 ft 11 kts 242°
2026-05-08 08:31 59.65455 17.92601 108 ft 12 kts 330°
2026-05-08 08:31 59.65538 17.92524 108 ft 13 kts 340°
2026-05-08 08:32 59.65634 17.92475 107 ft 14 kts 346°
2026-05-08 08:32 59.65732 17.92426 108 ft 14 kts 348°
2026-05-08 08:32 59.65834 17.92443 109 ft 14 kts 11°
2026-05-08 08:32 59.65934 17.92480 110 ft 14 kts 10°
2026-05-08 08:33 59.66031 17.92516 112 ft 14 kts 10°
2026-05-08 08:33 59.66126 17.92550 113 ft 13 kts 10°
2026-05-08 08:33 59.66219 17.92583 115 ft 13 kts 11°
2026-05-08 08:33 59.66309 17.92616 116 ft 12 kts 10°
2026-05-08 08:34 59.66396 17.92646 118 ft 12 kts 10°
2026-05-08 08:34 59.66481 17.92639 119 ft 12 kts 344°
2026-05-08 08:34 59.66562 17.92582 120 ft 11 kts 340°
2026-05-08 08:34 59.66615 17.92488 121 ft 11 kts 277°
2026-05-08 08:35 59.66594 17.92362 120 ft 7 kts 203°
2026-05-08 08:35 59.66581 17.92355 120 ft 0 kts 191°
2026-05-08 08:36 59.66505 17.92327 119 ft 41 kts 190°
2026-05-08 08:36 59.65983 17.92141 110 ft 110 kts 191°
2026-05-08 08:37 59.65028 17.91793 122 ft 162 kts 189°
2026-05-08 08:37 59.63908 17.91377 689 ft 165 kts 188°
2026-05-08 08:37 59.62785 17.90979 1347 ft 168 kts 188°
2026-05-08 08:37 59.61622 17.90464 1848 ft 180 kts 204°
2026-05-08 08:38 59.60723 17.88676 2273 ft 198 kts 240°
2026-05-08 08:38 59.60115 17.86188 2834 ft 206 kts 240°
2026-05-08 08:38 59.59406 17.83644 3289 ft 222 kts 244°
2026-05-08 08:38 59.59044 17.80515 3632 ft 247 kts 263°
2026-05-08 08:39 59.58902 17.77025 4151 ft 264 kts 263°
2026-05-08 08:39 59.58705 17.73409 4930 ft 269 kts 262°
2026-05-08 08:39 59.58495 17.69763 5832 ft 270 kts 263°
2026-05-08 08:39 59.58284 17.66083 6740 ft 272 kts 263°
2026-05-08 08:40 59.58075 17.62393 7616 ft 274 kts 263°
2026-05-08 08:40 59.57866 17.58673 8470 ft 276 kts 264°
2026-05-08 08:40 59.57657 17.54942 9335 ft 278 kts 264°
2026-05-08 08:40 59.57446 17.51158 10157 ft 281 kts 265°
2026-05-08 08:41 59.57234 17.47354 10890 ft 287 kts 265°
2026-05-08 08:41 59.57008 17.43298 11315 ft 303 kts 265°
2026-05-08 08:41 59.56774 17.39103 11824 ft 315 kts 265°
2026-05-08 08:41 59.56530 17.34779 12570 ft 319 kts 264°
2026-05-08 08:42 59.56281 17.30428 13352 ft 321 kts 264°
2026-05-08 08:42 59.56029 17.26034 14079 ft 324 kts 264°
2026-05-08 08:42 59.55774 17.21626 14775 ft 328 kts 264°
2026-05-08 08:42 59.55515 17.17161 15465 ft 331 kts 264°
2026-05-08 08:43 59.55252 17.12655 16146 ft 335 kts 264°
2026-05-08 08:43 59.54985 17.08109 16804 ft 338 kts 264°
2026-05-08 08:43 59.54712 17.03483 17459 ft 341 kts 264°
2026-05-08 08:43 59.54439 16.98881 18079 ft 344 kts 264°
2026-05-08 08:44 59.54158 16.94162 18718 ft 347 kts 264°
2026-05-08 08:44 59.53875 16.89446 19341 ft 350 kts 264°
2026-05-08 08:44 59.53589 16.84722 19943 ft 353 kts 264°
2026-05-08 08:44 59.53294 16.79883 20524 ft 356 kts 264°
2026-05-08 08:45 59.52997 16.75057 21090 ft 360 kts 264°
2026-05-08 08:45 59.52694 16.70143 21636 ft 363 kts 264°
2026-05-08 08:45 59.52390 16.65252 22189 ft 366 kts 264°
2026-05-08 08:45 59.52078 16.60253 22735 ft 369 kts 264°
2026-05-08 08:46 59.51763 16.55228 23273 ft 372 kts 264°
2026-05-08 08:46 59.51447 16.50213 23792 ft 374 kts 263°
2026-05-08 08:46 59.51121 16.45080 24294 ft 378 kts 263°
2026-05-08 08:46 59.50797 16.40006 24800 ft 380 kts 263°
2026-05-08 08:47 59.50465 16.34856 25301 ft 382 kts 262°
2026-05-08 08:47 59.50127 16.29664 25790 ft 384 kts 262°
2026-05-08 08:47 59.49781 16.24399 26280 ft 386 kts 262°
2026-05-08 08:47 59.49437 16.19160 26735 ft 388 kts 262°
2026-05-08 08:48 59.49087 16.13866 27160 ft 391 kts 262°
2026-05-08 08:48 59.48736 16.08600 27567 ft 393 kts 262°
2026-05-08 08:48 59.48376 16.03240 27975 ft 395 kts 262°
2026-05-08 08:48 59.48018 15.97930 28365 ft 397 kts 262°
2026-05-08 08:49 59.47650 15.92506 28768 ft 399 kts 262°
2026-05-08 08:49 59.47285 15.87148 29156 ft 401 kts 262°
2026-05-08 08:49 59.46912 15.81690 29537 ft 403 kts 262°
2026-05-08 08:49 59.46536 15.76239 29901 ft 404 kts 262°
2026-05-08 08:50 59.46159 15.70814 30251 ft 406 kts 262°
2026-05-08 08:50 59.45772 15.65270 30582 ft 408 kts 262°
2026-05-08 08:50 59.45385 15.59779 30904 ft 410 kts 262°
2026-05-08 08:50 59.44994 15.54261 31228 ft 412 kts 262°
2026-05-08 08:51 59.44597 15.48674 31534 ft 414 kts 262°
2026-05-08 08:51 59.44197 15.43114 31810 ft 416 kts 262°
2026-05-08 08:51 59.43791 15.37478 32115 ft 417 kts 262°
2026-05-08 08:51 59.43385 15.31882 32493 ft 416 kts 261°
2026-05-08 08:52 59.42974 15.26258 32854 ft 415 kts 261°
2026-05-08 08:52 59.42560 15.20621 33189 ft 415 kts 261°
2026-05-08 08:52 59.42147 15.15023 33530 ft 414 kts 261°
2026-05-08 08:52 59.41732 15.09433 33865 ft 413 kts 261°
2026-05-08 08:53 59.41318 15.03888 34171 ft 413 kts 261°
2026-05-08 08:53 59.40897 14.98305 34466 ft 412 kts 261°
2026-05-08 08:53 59.40477 14.92762 34757 ft 412 kts 260°
2026-05-08 08:53 59.40053 14.87198 35021 ft 411 kts 260°
2026-05-08 08:54 59.39626 14.81628 35244 ft 411 kts 260°
2026-05-08 08:54 59.39204 14.76148 35460 ft 410 kts 260°
2026-05-08 08:54 59.38774 14.70607 35650 ft 410 kts 260°
2026-05-08 08:54 59.38346 14.65122 35828 ft 410 kts 260°
2026-05-08 08:55 59.37910 14.59562 36021 ft 410 kts 260°
2026-05-08 08:55 59.37476 14.54053 36207 ft 410 kts 260°
2026-05-08 08:55 59.37043 14.48582 36394 ft 409 kts 260°
2026-05-08 08:55 59.36609 14.43132 36571 ft 408 kts 260°
2026-05-08 08:56 59.36168 14.37627 36728 ft 408 kts 260°
2026-05-08 08:56 59.35724 14.32115 36874 ft 409 kts 259°
2026-05-08 08:56 59.35278 14.26599 37041 ft 409 kts 259°
2026-05-08 08:56 59.34833 14.21148 37204 ft 409 kts 259°
2026-05-08 08:57 59.34386 14.15684 37352 ft 409 kts 259°
2026-05-08 08:57 59.33930 14.10135 37496 ft 409 kts 259°
2026-05-08 08:57 59.33475 14.04643 37641 ft 410 kts 259°
2026-05-08 08:57 59.33024 13.99212 37782 ft 410 kts 259°
2026-05-08 08:58 59.32562 13.93692 37898 ft 410 kts 259°
2026-05-08 08:58 59.32099 13.88193 38005 ft 411 kts 259°
2026-05-08 08:58 59.31632 13.82664 38109 ft 412 kts 259°
2026-05-08 08:58 59.31163 13.77148 38236 ft 412 kts 259°
2026-05-08 08:59 59.30218 13.66111 38275 ft 413 kts 259°
2026-05-08 08:59 59.29268 13.55110 38273 ft 413 kts 259°
2026-05-08 09:00 59.28304 13.44090 38274 ft 413 kts 259°
2026-05-08 09:00 59.27326 13.33023 38281 ft 414 kts 258°
2026-05-08 09:01 59.26338 13.21953 38273 ft 414 kts 258°
2026-05-08 09:01 59.25342 13.10903 38262 ft 413 kts 258°
2026-05-08 09:02 59.24338 12.99862 38262 ft 414 kts 258°
2026-05-08 09:02 59.23327 12.88847 38267 ft 413 kts 258°
2026-05-08 09:03 59.22335 12.78151 38277 ft 413 kts 258°
2026-05-08 09:03 59.21310 12.67211 38275 ft 412 kts 258°
2026-05-08 09:04 59.20274 12.56258 38267 ft 413 kts 258°
2026-05-08 09:04 59.19226 12.45289 38261 ft 412 kts 258°
2026-05-08 09:05 59.18167 12.34297 38259 ft 412 kts 257°
2026-05-08 09:05 59.17105 12.23366 38254 ft 413 kts 257°
2026-05-08 09:06 59.16033 12.12441 38253 ft 412 kts 257°
2026-05-08 09:06 59.14950 12.01489 38248 ft 412 kts 257°
2026-05-08 09:07 59.13855 11.90541 38248 ft 412 kts 257°
2026-05-08 09:07 59.12724 11.79626 38238 ft 412 kts 255°
2026-05-08 09:08 59.11141 11.68962 38244 ft 412 kts 250°
2026-05-08 09:08 59.09367 11.58379 38238 ft 412 kts 250°
2026-05-08 09:09 59.07583 11.47796 38253 ft 412 kts 251°
2026-05-08 09:09 59.05795 11.37246 38245 ft 412 kts 250°
2026-05-08 09:10 59.04003 11.26720 38244 ft 412 kts 250°
2026-05-08 09:10 59.02206 11.16226 38258 ft 412 kts 250°
2026-05-08 09:11 59.00389 11.05687 38258 ft 412 kts 249°
2026-05-08 09:11 58.98559 10.95134 38258 ft 413 kts 250°
2026-05-08 09:12 58.96733 10.84656 38259 ft 414 kts 250°
2026-05-08 09:12 58.94892 10.74154 38254 ft 414 kts 249°
2026-05-08 09:13 58.93034 10.63618 38256 ft 414 kts 250°
2026-05-08 09:13 58.91185 10.53188 38255 ft 412 kts 249°
2026-05-08 09:14 58.89322 10.42736 38250 ft 412 kts 250°
2026-05-08 09:14 58.87443 10.32257 38249 ft 412 kts 249°
2026-05-08 09:15 58.85556 10.21789 38246 ft 412 kts 249°
2026-05-08 09:15 58.83676 10.11425 38237 ft 413 kts 249°
2026-05-08 09:16 58.81764 10.00943 38240 ft 414 kts 249°
2026-05-08 09:16 58.79858 9.90536 38243 ft 414 kts 249°
2026-05-08 09:17 58.77944 9.80154 38238 ft 414 kts 249°
2026-05-08 09:17 58.76007 9.69699 38231 ft 413 kts 249°
2026-05-08 09:18 58.74080 9.59362 38237 ft 413 kts 249°
2026-05-08 09:18 58.72141 9.49014 38239 ft 413 kts 249°
2026-05-08 09:19 58.70187 9.38639 38235 ft 413 kts 248°
2026-05-08 09:19 58.68218 9.28245 38232 ft 414 kts 248°
2026-05-08 09:20 58.66259 9.17957 38234 ft 414 kts 248°
2026-05-08 09:20 58.64267 9.07553 38228 ft 414 kts 248°
2026-05-08 09:21 58.62281 8.97228 38228 ft 413 kts 248°
2026-05-08 09:23 58.55274 8.61247 38222 ft 413 kts 248°
2026-05-08 09:23 58.53270 8.51076 38220 ft 413 kts 248°
2026-05-08 09:24 58.51233 8.40795 38218 ft 413 kts 248°
2026-05-08 09:24 58.49199 8.30579 38215 ft 413 kts 247°
2026-05-08 09:25 58.47139 8.20281 38215 ft 413 kts 247°
2026-05-08 09:25 58.45086 8.10076 38215 ft 413 kts 247°
2026-05-08 09:26 58.43023 7.99867 38205 ft 413 kts 247°
2026-05-08 09:26 58.40964 7.89723 38210 ft 413 kts 247°
2026-05-08 09:27 58.38886 7.79545 38214 ft 412 kts 246°
2026-05-08 09:27 58.36811 7.69450 38219 ft 413 kts 247°
2026-05-08 09:28 58.34700 7.59222 38221 ft 414 kts 247°
2026-05-08 09:28 58.32603 7.49113 38213 ft 414 kts 247°
2026-05-08 09:29 58.30492 7.38976 38218 ft 413 kts 247°
2026-05-08 09:29 58.28360 7.28798 38213 ft 413 kts 246°
2026-05-08 09:30 58.26237 7.18707 38214 ft 413 kts 246°
2026-05-08 09:30 58.24108 7.08635 38212 ft 413 kts 246°
2026-05-08 09:31 58.21971 6.98583 38215 ft 413 kts 246°
2026-05-08 09:31 58.19828 6.88551 38215 ft 413 kts 246°
2026-05-08 09:32 58.17665 6.78482 38218 ft 414 kts 246°
2026-05-08 09:32 58.15494 6.68412 38216 ft 414 kts 246°
2026-05-08 09:33 58.13325 6.58402 38218 ft 413 kts 246°
2026-05-08 09:33 58.11141 6.48376 38225 ft 414 kts 246°
2026-05-08 09:34 58.08950 6.38361 38229 ft 413 kts 246°
2026-05-08 09:34 58.06750 6.28354 38230 ft 413 kts 245°
2026-05-08 09:35 58.04542 6.18357 38221 ft 413 kts 245°
2026-05-08 09:35 58.02333 6.08406 38226 ft 413 kts 245°
2026-05-08 09:36 58.00121 5.98487 38222 ft 413 kts 245°
2026-05-08 09:36 57.97930 5.88719 38223 ft 414 kts 245°
2026-05-08 09:37 57.95695 5.78786 38221 ft 414 kts 245°
2026-05-08 09:37 57.93445 5.68835 38219 ft 414 kts 245°
2026-05-08 09:38 57.91188 5.58900 38213 ft 413 kts 245°
2026-05-08 09:38 57.88975 5.49206 38211 ft 413 kts 245°
2026-05-08 09:39 57.86705 5.39311 38165 ft 413 kts 245°
2026-05-08 09:39 57.84451 5.29522 38229 ft 412 kts 244°
2026-05-08 09:40 57.82177 5.19699 38211 ft 413 kts 244°
2026-05-08 09:40 57.79893 5.09879 38209 ft 413 kts 244°
2026-05-08 09:41 57.77595 5.00043 38206 ft 413 kts 244°
2026-05-08 09:41 57.75297 4.90253 38200 ft 412 kts 244°
2026-05-08 09:42 57.72992 4.80474 38194 ft 412 kts 244°
2026-05-08 09:42 57.70693 4.70769 38193 ft 411 kts 245°
2026-05-08 09:43 57.68369 4.60998 38187 ft 411 kts 245°
2026-05-08 09:43 57.66058 4.51319 38185 ft 411 kts 245°
2026-05-08 09:44 57.63725 4.41590 38181 ft 411 kts 245°
2026-05-08 09:44 57.61400 4.31954 38180 ft 411 kts 244°
2026-05-08 09:45 57.58804 4.22541 38173 ft 409 kts 236°
2026-05-08 09:45 57.55318 4.14291 38172 ft 408 kts 225°
2026-05-08 09:46 57.51031 4.07474 38169 ft 408 kts 214°
2026-05-08 09:46 57.46211 4.01981 38168 ft 408 kts 211°
2026-05-08 09:47 57.41319 3.96631 38167 ft 409 kts 211°
2026-05-08 09:47 57.36446 3.91313 38166 ft 409 kts 211°
2026-05-08 09:48 57.31558 3.85993 38165 ft 408 kts 211°
2026-05-08 09:48 57.26676 3.80694 38167 ft 408 kts 211°
2026-05-08 09:49 57.21759 3.75375 38168 ft 409 kts 211°
2026-05-08 09:49 57.16882 3.70111 38174 ft 410 kts 211°
2026-05-08 09:50 57.11969 3.64824 38171 ft 410 kts 211°
2026-05-08 09:50 57.07073 3.59573 38169 ft 410 kts 211°
2026-05-08 09:51 57.02139 3.54303 38171 ft 410 kts 211°
2026-05-08 09:51 56.97255 3.49117 38168 ft 410 kts 211°
2026-05-08 09:52 56.92330 3.43902 38162 ft 409 kts 211°
2026-05-08 09:52 56.87416 3.38712 38167 ft 410 kts 211°
2026-05-08 09:53 56.82489 3.33530 38165 ft 410 kts 210°
2026-05-08 09:53 56.77544 3.28334 38163 ft 411 kts 211°
2026-05-08 09:54 56.72611 3.23164 38161 ft 411 kts 211°
2026-05-08 09:54 56.67665 3.18000 38163 ft 412 kts 211°
2026-05-08 09:55 56.62720 3.12854 38154 ft 411 kts 211°
2026-05-08 09:55 56.57762 3.07708 38155 ft 411 kts 211°
2026-05-08 09:56 56.52832 3.02607 38151 ft 411 kts 211°
2026-05-08 09:56 56.47861 2.97478 38147 ft 411 kts 211°
2026-05-08 09:57 56.40425 2.89838 38147 ft 412 kts 211°
2026-05-08 09:57 56.35451 2.84748 38146 ft 413 kts 211°
2026-05-08 09:58 56.30450 2.79644 38142 ft 413 kts 211°
2026-05-08 09:58 56.25478 2.74583 38141 ft 413 kts 211°
2026-05-08 09:59 56.20482 2.69514 38140 ft 413 kts 211°
2026-05-08 09:59 56.15512 2.64486 38144 ft 413 kts 211°
2026-05-08 10:00 56.10511 2.59443 38139 ft 413 kts 211°
2026-05-08 10:00 56.05533 2.54434 38139 ft 413 kts 211°
2026-05-08 10:01 56.00547 2.49434 38141 ft 413 kts 211°
2026-05-08 10:01 55.95570 2.44408 38139 ft 413 kts 214°
2026-05-08 10:02 55.91126 2.38038 38143 ft 412 kts 227°
2026-05-08 10:02 55.87670 2.29981 38146 ft 412 kts 240°
2026-05-08 10:03 55.85362 2.20695 38149 ft 413 kts 250°
2026-05-08 10:03 55.83539 2.11068 38145 ft 412 kts 251°
2026-05-08 10:04 55.81710 2.01397 38139 ft 411 kts 251°
2026-05-08 10:04 55.79887 1.91837 38129 ft 411 kts 251°
2026-05-08 10:05 55.78046 1.82258 38123 ft 411 kts 251°
2026-05-08 10:05 55.76212 1.72759 38124 ft 410 kts 251°
2026-05-08 10:06 55.74356 1.63201 38125 ft 410 kts 251°
2026-05-08 10:06 55.72495 1.53665 38120 ft 411 kts 251°
2026-05-08 10:07 55.70629 1.44148 38117 ft 411 kts 251°
2026-05-08 10:07 55.68757 1.34641 38115 ft 410 kts 250°
2026-05-08 10:08 55.66862 1.25074 38121 ft 410 kts 250°
2026-05-08 10:08 55.64984 1.15633 38123 ft 410 kts 250°
2026-05-08 10:09 55.63082 1.06118 38121 ft 410 kts 250°
2026-05-08 10:09 55.61187 0.96687 38120 ft 409 kts 250°
2026-05-08 10:10 55.59287 0.87289 38118 ft 409 kts 250°
2026-05-08 10:10 55.57365 0.77839 38118 ft 408 kts 250°
2026-05-08 10:11 55.55445 0.68454 38112 ft 408 kts 250°
2026-05-08 10:11 55.53531 0.59073 38108 ft 408 kts 250°
2026-05-08 10:12 55.51607 0.49698 38107 ft 407 kts 250°
2026-05-08 10:12 55.49678 0.40356 38105 ft 407 kts 250°
2026-05-08 10:13 55.47747 0.31051 38103 ft 407 kts 249°
2026-05-08 10:13 55.45797 0.21698 38102 ft 406 kts 249°
2026-05-08 10:14 55.43854 0.12431 38101 ft 406 kts 249°
2026-05-08 10:14 55.41894 0.03119 38096 ft 406 kts 249°
2026-05-08 10:15 55.39926 -0.06186 38099 ft 405 kts 249°
2026-05-08 10:15 55.37964 -0.15423 38097 ft 405 kts 250°